STARLINK-30243 (57648 NORAD) Tracking and Keplerian Element Data

This shows tracking and keplerian element data for the satellite.

Feedback or suggestion? Click here.




ElementValue
Catalog57648
NameSTARLINK-30243
Epoch Orbit2377
Epoch Day12.50838295
Epoch Year2024
RAAN51.5831
Inclination43.0029
Eccentricity0.0001154
Argument of Perigee253.7544
Mean Anonmoly106.3171
Mean Motion15.02540452
Decay Rate8.93E-06
L11 57648U 23122S 24012.50838295 .00000893 00000+0 81165-4 0 9993
L22 57648 43.0029 51.5831 0001154 253.7544 106.3171 15.02540452 23770



Live tracking and technical data element details for STARLINK-30243 (NORAD 57648). STARLINK-30243 can be tracked NOW for your location showing map with azimuth and elevation plus other details from your city location.







IsCatalogInMostPopularTable: catalog: 57648, numindb: 35
Update: records affected: 1



GetName: 57648 STARLINK-30243

Hit Count: updated at: Thu, 29 Feb 2024 10:57:59 GMT